Regional Weather Roundup
Issued by NWS

Home | Current Version | Previous Version | Graphics & Text | Print | Product List | Glossary Off
Versions: 1 2 3 4 5 6 7 8 9 10 11 12 13 14 15 16 17 18 19 20 21 22 23 24 25 26 27 28 29 30 31 32 33 34 35 36 37 38 39 40 41 42 43 44 45 46 47 48 49 50

000
ASUS43 KDTX 190801
RWRMI
MICHIGAN HOURLY REGIONAL WEATHER ROUNDUP
NATIONAL WEATHER SERVICE DETROIT/PONTIAC MI
300 AM EST THU JAN 19 2017

NOTE: "FAIR" INDICATES FEW OR NO CLOUDS BELOW 12,000 FEET WITH NO
SIGNIFICANT WEATHER AND/OR OBSTRUCTION TO VISIBILITY.

MIZ047>049-052>055-059>063-066>070-074>076-081>083-190900-
SOUTHEAST LOWER MICHIGAN

CITY           SKY/WX    TMP DP  RH WIND       PRES   REMARKS
ADRIAN         CLOUDY    32  32 100 W6        30.08R WCI  26
ALMA           CLOUDY    34  32  92 SW10G16   30.03R WCI  26
ANN ARBOR      CLOUDY    32  31  96 SW9       30.05R WCI  24
BAD AXE        CLOUDY    33  32  97 W9        30.02R WCI  25
CARO           CLOUDY    33  32  95 W8        30.02R WCI  26
DETROIT CITY   CLOUDY    34  30  86 SW13      30.05R WCI  25
DETROIT        CLOUDY    34  31  88 SW14      30.07R WCI  25
FLINT          CLOUDY    32  30  92 W8        30.03R WCI  25
GROSSE ILE     CLOUDY    33  31  93 W9        30.06R WCI  25
HILLSDALE      CLOUDY    32  32 100 W9        30.04R FOG     WCI  24
HOWELL         CLOUDY    32  31  94 SW12      30.04R WCI  23

CITY           SKY/WX    TMP DP  RH WIND       PRES   REMARKS
JACKSON        CLOUDY    33  30  88 W9        30.04S WCI  25
LAMBERTVILLE   CLOUDY    35  32  88 SW8       30.07S WCI  29
LANSING        CLOUDY    33  29  85 SW12      30.05R WCI  24
LAPEER         CLOUDY    33  32  94 W5        30.02R WCI  29
MASON          CLOUDY    32  32  97 SW7       30.05R WCI  26
MONROE         CLOUDY    33  32  98 W10       30.07R WCI  25
MT. CLEMENS    CLOUDY    34  32  92 SW10      30.03R WCI  26
PONTIAC        CLOUDY    32  29  88 SW7       30.02R WCI  26
PORT HOPE        N/A     34  31  88 W6        29.99R WCI  29
PORT HURON     CLOUDY    34  32  93 W3        30.04R
TRI CITIES     CLOUDY    34  32  92 SW10      30.02S WCI  26
MIDLAND        CLOUDY    35  32  89 SW5       30.01R WCI  31
TROY           CLOUDY    33  30  90 SW12G17   30.06R WCI  24
SAGINAW HB     CLOUDY    34  30  86 SW5       30.03R WCI  30
$$
MIZ043>046-050>051-056>058-064>065-071>073-077>080-190900-
SOUTHWEST LOWER MICHIGAN

CITY           SKY/WX    TMP DP  RH WIND       PRES   REMARKS
BATTLE CREEK   CLOUDY    34  32  92 SW15      30.06R WCI  24
BENTON HARBOR  CLOUDY    37  33  85 SW7       30.07R WCI  32
BIG RAPIDS     CLOUDY    34  32  93 SW6       29.99R FOG     WCI  29
COLDWATER      CLOUDY    33  33 100 SW9       30.07R WCI  26
FREMONT        CLOUDY    35  34  96 SW9       30.01R WCI  28
HOLLAND        CLOUDY    37  33  85 SW14      30.05R WCI  28
GRAND RAPIDS   CLOUDY    35  31  85 SW10      30.03S WCI  27
IONIA          CLOUDY    33  32  95 SW13      30.03S WCI  24
KALAMAZOO      CLOUDY    35  30  82 SW6G17    30.06S WCI  30
LUDINGTON      CLOUDY    35  34  96 SW10      29.99S FOG     WCI  27
MARSHALL       CLOUDY    33  32  96 SW7       30.05S WCI  27
MOUNT PLEASANT CLOUDY    35  32  91 SW6       30.01R WCI  30
MUSKEGON       CLOUDY    37  34  89 SW12      30.03S WCI  29
SOUTH HAVEN    CLOUDY    36  34  92 SW8       30.06R FOG     WCI  30
$$
MIZ016>042-190900-
NORTHERN LOWER MICHIGAN

CITY           SKY/WX    TMP DP  RH WIND       PRES   REMARKS
ALPENA         CLOUDY    34  31  88 S3        29.97R
BEAVER ISLAND  MOCLDY    36  34  93 SW9       29.92R WCI  29
BELLAIRE       CLOUDY    35  32  89 S7        29.97R WCI  29
CADILLAC       CLOUDY    32  32  99 SW9       29.95R FOG     WCI  24
CHARLEVOIX     MOCLDY    35  34  95 S8        29.96S FOG     WCI  28
FRANKFORT      CLOUDY    37  35  93 SW7       29.96S FOG     WCI  31
GAYLORD        CLOUDY    34  29  82 SW10      29.93R HAZE    WCI  26
GRAYLING       CLOUDY    34  32  93 SW7       29.96R WCI  28
HARBOR SPRINGS CLOUDY    35  32  91 SW6       29.94R WCI  30
HOUGHTON LAKE  CLOUDY    33  31  92 SW7       29.97R WCI  27
MANISTEE       CLOUDY    35  33  92 S7        29.98R FOG     WCI  29
OSCODA         CLOUDY    35  32  90 SW5       29.99R WCI  31
PELLSTON       CLOUDY    36  31  82 SW7       29.94R WCI  30
ROGERS CITY    CLOUDY    35  32  87 SW3       29.96S
TRAVERSE CITY  CLOUDY    36  32  85 SW5       29.96R WCI  32
$$
MIZ007>008-015-190900-
EASTERN UPPER MICHIGAN

CITY           SKY/WX    TMP DP  RH WIND       PRES   REMARKS
KINROSS        CLOUDY    34  33  96 SW6       29.91R WCI  29
MACKINAC ISLAN CLOUDY    34  34 100 SW8       29.92R FOG     WCI  27
NEWBERRY       FOG       31  31  98 S6        29.88R VSB 1   WCI  25
S. S. MARIE    CLOUDY    35  32  88 CALM      29.90S FOG
MUNISING         N/A     29  27  92 S8        29.87R WCI  21
$$
MIZ004>006-011>014-085-190900-
CENTRAL UPPER MICHIGAN

CITY           SKY/WX    TMP DP  RH WIND       PRES   REMARKS
MANISTIQUE     CLOUDY    30  29  97 SW5       29.89R FOG     WCI  25
ESCANABA       CLOUDY    29  28  96 W3        29.90R
SAWYER-GWINN   FOG       25  24  96 CALM      29.85R VSB 1/2
$$
MIZ001>003-009>011-084-190900-
WESTERN UPPER MICHIGAN

CITY           SKY/WX    TMP DP  RH WIND       PRES   REMARKS
IRON MOUNTAIN  FOG       22  18  85 CALM      29.86S VSB 1
HOUGHTON       CLOUDY    25  22  88 CALM      29.82S
COPPER HARBOR    N/A     31  27  85 SW5       29.84R WCI  26
$$

ABBREVIATIONS USED IN REMARKS
   TC - TEMPERATURE IN CELSIUS
  WCI - WIND CHILL INDEX
   HX - HEAT INDEX
  VSB - VISIBILITY




USA.gov is the U.S. government's official web portal to all federal, state and local government web resources and services.